Skip Page Navigation
NASA JPL Caltech
NASA Logo - Jet Propulsion Laboratory + View the NASA Portal
+ Center for Near-Earth Object Studies
JPL Home Earth Solar System Stars & Galaxies Technology
JPL Solar System Dynamics
BODIES ORBITS EPHEMERIDES TOOLS PHYSICAL DATA DISCOVERY FAQ SITE MAP
JPL Small-Body Database Browser
Search: [ help ]  
393184 (2013 CR101)
Classification: Outer Main-belt Asteroid          SPK-ID: 2393184
Ephemeris | Orbit Diagram | Orbital Elements | Mission Design | Physical Parameters | Discovery Circumstances | Close-Approach Data ]

[ show orbit diagram ]
Orbital Elements at Epoch 2459000.5 (2020-May-31.0) TDB
Reference: JPL 22 (heliocentric ecliptic J2000)
 Element Value Uncertainty (1-sigma)   Units 
e .1524472112706503 8.2106e-08  
a 3.963658053170069 1.2883e-07 au
q 3.359409436533837 3.2839e-07 au
i 1.779562048454983 6.6933e-06 deg
node 288.2241581011405 0.00031851 deg
peri 311.9658607054045 0.00031955 deg
M 255.2761772204412 3.3628e-05 deg
tp 2459838.966439323903
(2022-Sep-16.46643932)
0.00029897 TDB
period 2882.323335273844
7.89
0.00014053
3.848e-07
d
yr
n .1248992420781956 6.0896e-09 deg/d
Q 4.567906669806301 1.4847e-07 au
  Orbit Determination Parameters
   # obs. used (total)      207  
   data-arc span      7099 days (19.44 yr)  
   first obs. used      2000-07-29  
   last obs. used      2020-01-05  
   planetary ephem.      DE431  
   SB-pert. ephem.      SB431-N16  
   condition code      0  
   norm. resid. RMS      .56184  
   source      ORB  
   producer      Otto Matic  
   solution date      2020-Feb-26 04:48:19  

Additional Information
 Earth MOID = 2.34739 au 
 Jupiter MOID = .491476 au 
 T_jup = 3.037 
[ hide covariance matrix ]
Orbital Elements at Epoch 2457304.5 (2015-Oct-09.0) TDB
Reference: JPL 22 (heliocentric ecliptic J2000)
 Element Value Uncertainty (1-sigma)   Units 
e .1522076734547692 8.2349e-08  
q 3.358798433310899 3.2935e-07 au
tp 2456951.714408276599
(2014-Oct-21.21440828)
0.00021233 TDB
node 288.3171366674875 0.00031869 deg
peri 311.3822538056361 0.00031971 deg
i 1.779350078853547 6.6906e-06 deg
  Orbit Determination Parameters
   # obs. used (total)      207  
   data-arc span      7099 days (19.44 yr)  
   first obs. used      2000-07-29  
   last obs. used      2020-01-05  
   planetary ephem.      DE431  
   SB-pert. ephem.      SB431-N16  
   condition code      0  
   norm. resid. RMS      .56184  
   source      ORB  
   producer      Otto Matic  
   solution date      2020-Feb-26 04:48:19  

Additional Information
 Jupiter MOID = .491476 au 
 T_jup = 3.037 
Orbit Covariance (6×6)
  e q tp node peri i
e 6.781417451235468E-15 -2.564091729127226E-14 -4.957515475593944E-12 -4.165369606574092E-15 -6.390018883166565E-13 -1.06853125628534E-16
q -2.564091729127226E-14 1.084743318140967E-13 2.911787873931864E-11 5.260325665162035E-14 3.814169803001399E-12 1.9862842664961E-15
tp -4.957515475593944E-12 2.911787873931864E-11 4.508204538397262E-8 2.86688099142787E-11 5.712464090376848E-9 1.807442009289006E-12
node -4.165369606574092E-15 5.260325665162035E-14 2.86688099142787E-11 1.015603430662792E-7 -1.015066272421261E-7 -5.269416486235444E-10
peri -6.390018883166565E-13 3.814169803001399E-12 5.712464090376848E-9 -1.015066272421261E-7 1.022150767031149E-7 5.269284074710532E-10
i -1.06853125628534E-16 1.9862842664961E-15 1.807442009289006E-12 -5.269416486235444E-10 5.269284074710532E-10 4.476406474402079E-11

Ephemeris | Orbit Diagram | Orbital Elements | Mission Design | Physical Parameters | Discovery Circumstances | Close-Approach Data ]

Physical Parameter Table
Parameter Symbol Value Units Sigma Reference Notes
absolute magnitude H 14.5   n/a MPO427956  

393184 (2013 CR101)          Discovered 2005-Jan-17 by Spacewatch at Kitt Peak
Reference: Last Updated: 2014-04-17

[ show close-approach data ]
Alternate Designations
 2013 CR101 = 2009 RU67 
Ephemeris | Orbit Diagram | Orbital Elements | Mission Design | Physical Parameters | Discovery Circumstances | Close-Approach Data ]
ABOUT SSD CREDITS/AWARDS PRIVACY/COPYRIGHT GLOSSARY LINKS
FirstGov 2020-Sep-30 23:33 UT
(server date/time)  
NASA Home Page
Site Manager:   Ryan S. Park
Webmaster  Alan B. Chamberlin